Weather History for KFSE - April, 2013

Change the Weather History Date:

Wednesday, April 3, 2013

  Actual Average Record
Temperature  
Mean Temperature 22 °F -  
Max Temperature 39 °F 43 °F 65 °F (1991)
Min Temperature 6 °F 22 °F -7 °F (1975)
Degree Days  
Heating Degree Days 42    
Moisture  
Dew Point 18 °F    
Average Humidity 70    
Maximum Humidity 87    
Minimum Humidity 51    
Precipitation  
Precipitation 0.00 in - - ()
Sea Level Pressure  
Sea Level Pressure 30.10 in    
Wind  
Wind Speed 8 mph (South)    
Max Wind Speed 28 mph    
Max Gust Speed 33 mph    
Visibility 10 miles    
Events      
Averages and records for this station are not official NWS values.
T = Trace of Precipitation, MM = Missing Value Source: NWS Daily Summary

Daily Weather History Graph

Daily Weather History Graph

Search for Another Location

Airport or City:

Trip Planner

Search our weather history database for the weather conditions in past years. The results will help you decide how hot, cold, wet, or windy it might be!

Date:

Astronomy

Apr. 03, 2013 Rise Set
Actual Time 6:57 AM CDT 7:56 PM CDT
Civil Twilight 6:25 AM CDT 8:27 PM CDT
Nautical Twilight 5:48 AM CDT 9:05 PM CDT
Astronomical Twilight 5:08 AM CDT 9:45 PM CDT
Moon 3:05 AM CDT (4/3) 12:43 PM CDT (4/3)
Length of Visible Light 14h 01m
Length of Day
12h 59m
Last Quarter, 44% of the Moon is Illuminated
Apr 3
Last Quarter
Apr 10
New
Apr 18
First Quarter
Apr 25
Full
May 2
Last Quarter

Hourly Weather History & Observations

Time (CDT) Temp. Windchill Dew Point Humidity Pressure Visibility Wind Dir Wind Speed Gust Speed Precip Events Conditions
12:15 AM 10.4 °F - 3.2 °F 73% 30.32 in 10.0 mi Calm Calm - N/A   Clear
12:35 AM 8.6 °F - 3.2 °F 79% 30.31 in 10.0 mi Calm Calm - N/A   Clear
12:56 AM 8.6 °F - 3.2 °F 79% 30.31 in 10.0 mi Calm Calm - N/A   Clear
1:15 AM 6.8 °F - 1.4 °F 79% 30.31 in 10.0 mi Calm Calm - N/A   Clear
1:35 AM 8.6 °F - 1.4 °F 73% 30.30 in 10.0 mi Calm Calm - N/A   Clear
1:55 AM 8.6 °F - 1.4 °F 73% 30.30 in 10.0 mi Calm Calm - N/A   Clear
2:15 AM 8.6 °F - 3.2 °F 79% 30.30 in 10.0 mi Calm Calm - N/A   Clear
2:35 AM 8.6 °F - 3.2 °F 79% 30.29 in 10.0 mi Calm Calm - N/A   Clear
2:55 AM 8.6 °F - 3.2 °F 79% 30.28 in 10.0 mi Calm Calm - N/A   Clear
3:15 AM 6.8 °F - 1.4 °F 79% 30.28 in 10.0 mi Calm Calm - N/A   Clear
3:35 AM 6.8 °F - 1.4 °F 79% 30.28 in 10.0 mi Calm Calm - N/A   Clear
3:55 AM 6.8 °F - 1.4 °F 79% 30.27 in 10.0 mi Calm Calm - N/A   Clear
4:15 AM 10.4 °F 0.8 °F 6.8 °F 85% 30.27 in 10.0 mi SE 5.8 mph - N/A   Clear
4:35 AM 12.2 °F 2.9 °F 8.6 °F 85% 30.26 in 10.0 mi SE 5.8 mph - N/A   Clear
4:55 AM 12.2 °F 2.9 °F 8.6 °F 85% 30.26 in 10.0 mi SE 5.8 mph - N/A   Clear
5:15 AM 12.2 °F 4.3 °F 8.6 °F 85% 30.25 in 10.0 mi SE 4.6 mph - N/A   Clear
5:35 AM 14.0 °F 5.1 °F 8.6 °F 79% 30.25 in 10.0 mi SE 5.8 mph - N/A   Clear
5:55 AM 15.8 °F 4.2 °F 8.6 °F 73% 30.24 in 10.0 mi SE 9.2 mph - N/A   Clear
6:15 AM 15.8 °F 6.1 °F 8.6 °F 73% 30.24 in 10.0 mi SE 6.9 mph - N/A   Clear
6:35 AM 15.8 °F 6.1 °F 6.8 °F 68% 30.24 in 10.0 mi SE 6.9 mph - N/A   Clear
6:55 AM 15.8 °F 5.1 °F 8.6 °F 73% 30.24 in 10.0 mi SE 8.1 mph - N/A   Clear
7:15 AM 15.8 °F 3.4 °F 8.6 °F 73% 30.23 in 10.0 mi SSE 10.4 mph - N/A   Clear
7:35 AM 17.6 °F 6.4 °F 8.6 °F 68% 30.23 in 10.0 mi SSE 9.2 mph - N/A   Clear
7:55 AM 19.4 °F 7.9 °F 8.6 °F 63% 30.22 in 10.0 mi SSE 10.4 mph - N/A   Clear
8:15 AM 19.4 °F 6.0 °F 8.6 °F 63% 30.21 in 10.0 mi SSE 13.8 mph - N/A   Clear
8:35 AM 23.0 °F 10.1 °F 10.4 °F 59% 30.20 in 10.0 mi SSE 15.0 mph - N/A   Clear
8:55 AM 24.8 °F 11.5 °F 10.4 °F 54% 30.20 in 10.0 mi South 17.3 mph - N/A   Clear
9:15 AM 24.8 °F 11.9 °F 12.2 °F 59% 30.19 in 10.0 mi South 16.1 mph - N/A   Clear
9:35 AM 26.6 °F 13.8 °F 12.2 °F 55% 30.19 in 10.0 mi South 17.3 mph - N/A   Clear
9:55 AM 26.6 °F 13.8 °F 12.2 °F 55% 30.17 in 10.0 mi South 17.3 mph - N/A   Clear
10:15 AM 28.4 °F 15.4 °F 14.0 °F 55% 30.17 in 10.0 mi South 19.6 mph - N/A   Clear
10:35 AM 30.2 °F 17.4 °F 14.0 °F 51% 30.16 in 10.0 mi South 20.7 mph 26.5 mph N/A   Clear
10:55 AM 32.0 °F 20.5 °F 15.8 °F 51% 30.15 in 10.0 mi South 18.4 mph - N/A   Clear
11:15 AM 33.8 °F 23.2 °F 17.6 °F 52% 30.14 in 10.0 mi South 17.3 mph - N/A   Clear
11:35 AM 35.6 °F 24.8 °F 19.4 °F 52% 30.11 in 10.0 mi SSE 19.6 mph 24.2 mph N/A   Clear
11:55 AM 35.6 °F 25.5 °F 19.4 °F 52% 30.10 in 10.0 mi SSE 17.3 mph 23.0 mph N/A   Clear
12:15 PM 37.4 °F 28.2 °F 21.2 °F 52% 30.09 in 10.0 mi SSE 16.1 mph 19.6 mph N/A   Clear
12:35 PM 39.2 °F 30.8 °F 23.0 °F 52% 30.07 in 10.0 mi South 15.0 mph - N/A   Clear
12:55 PM 39.2 °F 30.2 °F 23.0 °F 52% 30.06 in 10.0 mi South 17.3 mph 21.9 mph N/A   Clear
1:15 PM 39.2 °F 29.6 °F 24.8 °F 56% 30.05 in 10.0 mi South 19.6 mph - N/A   Clear
1:35 PM 37.4 °F 26.9 °F 23.0 °F 56% 30.04 in 10.0 mi South 20.7 mph - N/A   Clear
1:55 PM 39.2 °F 30.5 °F 24.8 °F 56% 30.03 in 10.0 mi South 16.1 mph - N/A   Clear
2:15 PM 39.2 °F 30.2 °F 24.8 °F 56% 30.02 in 10.0 mi South 17.3 mph - N/A   Clear
2:35 PM 39.2 °F 29.8 °F 24.8 °F 56% 30.01 in 10.0 mi South 18.4 mph 25.3 mph N/A   Clear
2:55 PM 39.2 °F 29.6 °F 26.6 °F 61% 30.00 in 10.0 mi South 19.6 mph - N/A   Clear
3:15 PM 39.2 °F 29.8 °F 24.8 °F 56% 29.99 in 10.0 mi South 18.4 mph 25.3 mph N/A   Clear
3:35 PM 39.2 °F 29.3 °F 26.6 °F 61% 29.98 in 10.0 mi South 20.7 mph - N/A   Clear
3:55 PM 39.2 °F 28.5 °F 26.6 °F 61% 29.96 in 10.0 mi South 24.2 mph - N/A   Clear
4:15 PM 37.4 °F 26.1 °F 26.6 °F 65% 29.95 in 10.0 mi South 24.2 mph 29.9 mph N/A   Clear
4:35 PM 39.2 °F 28.3 °F 26.6 °F 61% 29.94 in 10.0 mi South 25.3 mph 33.4 mph N/A   Clear
4:55 PM 37.4 °F 25.9 °F 26.6 °F 65% 29.94 in 10.0 mi South 25.3 mph 29.9 mph N/A   Clear
5:15 PM 37.4 °F 25.4 °F 26.6 °F 65% 29.91 in 10.0 mi South 27.6 mph 32.2 mph N/A   Scattered Clouds
5:35 PM 37.4 °F 26.1 °F 28.4 °F 70% 29.89 in 10.0 mi South 24.2 mph 33.4 mph N/A   Scattered Clouds
5:55 PM 37.4 °F 26.6 °F 28.4 °F 70% 29.93 in 10.0 mi South 21.9 mph 32.2 mph N/A   Scattered Clouds
6:15 PM 39.2 °F 31.2 °F 28.4 °F 65% 29.93 in 10.0 mi South 13.8 mph - N/A   Scattered Clouds
6:35 PM 39.2 °F 30.5 °F 28.4 °F 65% 29.93 in 10.0 mi South 16.1 mph 20.7 mph N/A   Scattered Clouds
6:55 PM 37.4 °F 32.8 °F 28.4 °F 70% 29.94 in 10.0 mi South 5.8 mph - N/A   Scattered Clouds
7:15 PM 37.4 °F 31.4 °F 30.2 °F 75% 29.94 in 10.0 mi SW 8.1 mph - N/A   Mostly Cloudy
7:35 PM 35.6 °F 29.9 °F 30.2 °F 81% 29.93 in 10.0 mi WSW 6.9 mph - N/A   Mostly Cloudy
7:55 PM 35.6 °F 30.7 °F 30.2 °F 81% 29.93 in 10.0 mi WSW 5.8 mph - N/A   Mostly Cloudy
8:15 PM 35.6 °F 29.2 °F 30.2 °F 81% 29.92 in 10.0 mi SSW 8.1 mph - N/A   Mostly Cloudy
8:35 PM 33.8 °F 28.6 °F 30.2 °F 87% 29.93 in 10.0 mi SW 5.8 mph - N/A   Mostly Cloudy
8:55 PM 33.8 °F - 30.2 °F 87% 29.93 in 10.0 mi Calm Calm - N/A   Mostly Cloudy
9:15 PM 33.8 °F - 30.2 °F 87% 29.94 in 10.0 mi Calm Calm - N/A   Mostly Cloudy
9:35 PM 33.8 °F - 30.2 °F 87% 29.95 in 10.0 mi Calm Calm - N/A   Mostly Cloudy
9:55 PM 35.6 °F 29.9 °F 30.2 °F 81% 29.96 in 10.0 mi West 6.9 mph - N/A   Mostly Cloudy
10:15 PM 33.8 °F - 30.2 °F 87% 29.96 in 10.0 mi Calm Calm - N/A   Mostly Cloudy
10:35 PM 33.8 °F - 30.2 °F 87% 29.96 in 10.0 mi Calm Calm - N/A   Scattered Clouds
10:55 PM 33.8 °F - 30.2 °F 87% 29.96 in 10.0 mi Calm Calm - N/A   Clear
11:15 PM 33.8 °F 25.8 °F 30.2 °F 87% 29.95 in 10.0 mi NW 10.4 mph - N/A   Clear
11:35 PM 33.8 °F 25.3 °F 28.4 °F 81% 29.96 in 10.0 mi WNW 11.5 mph - N/A   Clear
11:55 PM 32.0 °F 23.0 °F 28.4 °F 87% 29.96 in 10.0 mi NW 11.5 mph 18.4 mph N/A   Clear